Tracking 29892 objects as of 21-Nov-2024
HD Live streaming from Space Station
objects crossing your sky now

SL-16 DEB

Track SL-16 DEB now!
10-day predictions


NORAD ID: 39857
Int'l Code: 1992-093LK
Perigee: 779.7 km
Apogee: 864.8 km
Inclination: 70.9 °
Period: 101.2 minutes
Semi major axis: 7193 km
RCS: 0.003 m2 (small)
Launch date: December 25, 1992
Source: Commonwealth of Independent States (former USSR) (CIS)
Launch site: TYURATAM MISSILE AND SPACE COMPLEX (TTMTR)

Note: This is SATELLITE DEBRIS
Your satellite tracking list
Your tracking list is empty




NASA's NSSDC Master Catalog

Two Line Element Set (TLE):
1 39857U 92093LK  24317.31105663  .00004930  00000-0  21671-2 0  9992
2 39857  70.9213 337.0405 0059134  25.7738 334.6313 14.23042083844323
Source of the keplerian elements: AFSPC